Hourly Data Report for November 09, 2019

All times are specified in Local Standard Time (LST). Add 1 hour to adjust for Daylight Saving Time where and when it is observed.

SEPT-ILES
QUEBEC
Current Station Operator: ECCC - MSC

50°13'00.000" N
66°15'00.000" W
52.60 m
7047914
71279
XZV

Download Data

Hourly Data (November 2019)
Hourly Data Report for November 9, 2019
TIME Temp Definition
°C
Dew Point Definition
°C
Rel Hum Definition
%
Wind Dir Definition
10's deg

Wind Spd Definition
km/h
Visibility Definition
km
Stn Press Definition
kPa
Hmdx Definition


Wind Chill Definition


Weather Definition


00:00 -5.3 -13.7 52 32 16   100.43   -11 LegendNANA
01:00 -6.3 -13.4 57 30 14   100.45   -12 LegendNANA
02:00 -6.9 -13.4 59 30 11   100.52   -12 LegendNANA
03:00 -6.5 -13.5 57 31 14   100.55   -12 LegendNANA
04:00 -7.0 -13.8 59 30 10   100.62   -12 LegendNANA
05:00 -7.7 -14.1 60 31 10   100.66   -13 LegendNANA
06:00 -7.9 -13.6 63 31 11   100.73   -13 LegendNANA
07:00 -7.4 -12.8 65 31 5   100.81   -10 LegendNANA
08:00 -5.7 -12.4 59 31 6   100.83   -9 LegendNANA
09:00 -5.3 -13.8 51 30 16   100.83   -11 LegendNANA
10:00 -4.7 -14.0 48 28 14   100.85   -10 LegendNANA
11:00 -4.1 -14.3 45 27 15   100.81   -9 LegendNANA
12:00 -3.7 -14.8 42 27 15   100.76   -9 LegendNANA
13:00 -3.3 -13.6 45 25 13   100.73   -8 LegendNANA
14:00 -3.4 -13.5 46 26 13   100.72   -8 LegendNANA
15:00 -4.9 -12.3 56 28 12   100.77   -10 LegendNANA
16:00 -5.6 -12.4 59 29 11   100.82   -10 LegendNANA
17:00 -6.1 -11.3 67 27 10   100.90   -11 LegendNANA
18:00 -5.4 -13.3 54 26 12   100.97   -10 LegendNANA
19:00 -6.1 -13.0 58 31 8   100.95   -10 LegendNANA
20:00 -7.2 -12.4 66 34 5   100.93   -10 LegendNANA
21:00 -7.2 -12.0 68 7 5   100.92   -10 LegendNANA
22:00 -7.5 -10.1 82 3 6   100.89   -11 LegendNANA
23:00 -7.7 -9.5 87 5 8   100.81   -12 LegendNANA

Notes on Data Quality.

Legend

  • E = Estimated
  • M = Missing
  • NA = Not Available
Date modified: